Location: Newark
(51.3000°N, 178.2000°W)
Time: 02:19:10
(UTC+00:00)

Tiangong - Pass Details

Date: 25 June 2021
Orbit: 373 x 386 km, 41.5° (Epoch: 02 August)

Event Time Altitude Azimuth Distance (km) Brightness Sun altitude
Exits shadow 14:48:31 - 218° (SW) 1,504 3.3 -6.2°
Reaches altitude 10° 14:48:59 10° 211° (SSW) 1,386 3.2 -6.2°
Maximum altitude 14:50:43 14° 178° (S) 1,174 3.1 -6.0°
Drops below altitude 10° 14:52:28 10° 144° (SE) 1,392 3.8 -5.8°
Sets 14:55:14 0° 117° (ESE) 2,249 5.1 -5.6°
